Temp
2 2 2 2 1 1 1 1 1 1 1 1 1 1 1 1 1 1 1 2 2 2 2 2 2 2 2 3 2 2 2 2 2 4 6 7 8 7 7 7 5 5 5
2 2 1 1 1 0 -0 -0 -0 -0 -0 -0 -1 -0 -0 -0 0 0 -0 -0 0 1 1 1 1 2 1 1 1 2 1 1 2 2 4 5 6 7 7 7 6 5 4
2 1 1 1 -0 -0 -1 -1 -1 -2 -2 -1 -2 -2 -2 -2 -2 -2 -2 -2 -3 -3 -1 -0 0 0 0 0 1 0 0 1 1 1 2 4 5 4 3 3 3 3 2
2 2 2 1 -0 -1 -1 -1 -2 -3 -4 -4 -5 -5 -5 -5 -5 -5 -5 -4 -4 -4 -4 -4 -3 -2 -1 -0 -1 -1 -1 -1 -0 0 0 1 2 2 2 0 -1 -1 0
2 2 1 0 -0 -1 -1 -2 -3 -4 -5 -6 -7 -7 -7 -7 -7 -6 -6 -5 -5 -5 -5 -5 -4 -4 -3 -3 -2 -2 -1 -1 -1 -1 0 1 -1 -1 -1 -0 -0 -1 -2
1 -0 -0 -1 -1 -2 -4 -5 -6 -7 -7 -8 -8 -9 -9 -8 -8 -7 -6 -6 -6 -6 -6 -6 -5 -5 -4 -4 -3 -3 -2 -2 -2 -1 -1 -1 1 -0 1 0 -1 -1 -2
-1 -1 -2 -4 -5 -6 -7 -7 -8 -9 -10 -11 -11 -11 -11 -11 -10 -9 -9 -8 -8 -8 -8 -7 -7 -6 -5 -5 -4 -4 -3 -2 -1 -1 -1 -1 -0 1 1 -1 -2 0 1
-3 -4 -6 -7 -8 -9 -9 -10 -11 -12 -13 -13 -13 -14 -14 -14 -13 -12 -12 -11 -11 -11 -10 -9 -9 -8 -8 -7 -6 -5 -5 -4 -3 -2 -2 -1 -1 -1 1 1 0 -0 1
-5 -8 -9 -10 -11 -12 -12 -13 -14 -14 -15 -15 -16 -15 -16 -16 -15 -14 -13 -13 -13 -13 -12 -12 -11 -10 -10 -8 -8 -7 -6 -5 -4 -3 -3 -2 -2 -1 -1 -1 -1 -1 -1
-9 -10 -11 -11 -12 -13 -14 -15 -15 -16 -17 -17 -17 -17 -17 -17 -17 -16 -14 -14 -13 -13 -13 -12 -12 -11 -10 -9 -8 -8 -8 -7 -6 -4 -4 -3 -3 -2 -1 -1 -2 -1 -1
-11 -11 -12 -13 -14 -14 -15 -16 -17 -17 -18 -18 -19 -18 -18 -18 -18 -16 -14 -14 -13 -13 -13 -13 -12 -12 -11 -10 -9 -9 -8 -7 -6 -5 -4 -4 -3 -3 -3 -2 -2 -2 -1
-12 -13 -14 -14 -14 -15 -16 -16 -17 -18 -19 -19 -19 -18 -18 -17 -17 -16 -14 -13 -13 -12 -13 -12 -12 -12 -11 -11 -10 -10 -9 -8 -7 -5 -4 -4 -3 -3 -3 -3 -3 -2 -2
-14 -14 -14 -15 -16 -17 -17 -17 -19 -19 -19 -19 -19 -19 -18 -17 -17 -16 -14 -13 -13 -13 -13 -13 -11 -10 -10 -10 -10 -10 -10 -10 -9 -7 -5 -3 -3 -2 -3 -3 -3 -3 -3
-15 -15 -15 -17 -17 -17 -18 -18 -19 -20 -20 -19 -19 -18 -17 -15 -14 -14 -14 -14 -13 -13 -13 -12 -12 -11 -11 -10 -11 -11 -11 -10 -10 -8 -6 -4 -3 -3 -2 -3 -3 -3 -3
-16 -16 -17 -17 -18 -18 -19 -19 -19 -18 -18 -16 -15 -14 -14 -14 -13 -12 -11 -11 -11 -10 -10 -10 -11 -14 -14 -14 -14 -12 -11 -11 -10 -9 -6 -4 -3 -3 -3 -3 -3 -3 -4
-17 -17 -18 -18 -19 -19 -20 -20 -18 -17 -16 -15 -14 -14 -14 -13 -12 -12 -11 -11 -10 -10 -9 -9 -10 -10 -10 -11 -12 -11 -11 -11 -10 -9 -5 -5 -4 -4 -3 -4 -4 -4 -5
-18 -18 -18 -19 -19 -20 -20 -20 -20 -17 -17 -17 -16 -15 -14 -13 -13 -13 -12 -12 -12 -12 -13 -12 -12 -11 -11 -11 -12 -12 -11 -10 -9 -9 -7 -6 -4 -4 -4 -4 -5 -4 -5
-18 -18 -18 -19 -20 -20 -21 -20 -20 -20 -19 -19 -18 -17 -16 -15 -14 -13 -14 -15 -17 -16 -16 -15 -14 -14 -13 -12 -12 -12 -11 -11 -10 -8 -6 -5 -4 -4 -5 -5 -5 -5 -6
-18 -18 -19 -20 -20 -20 -20 -21 -21 -20 -20 -19 -19 -18 -18 -17 -16 -17 -17 -19 -18 -18 -17 -17 -16 -16 -14 -14 -12 -12 -12 -11 -10 -9 -7 -6 -5 -5 -5 -5 -5 -6 -6
-18 -19 -20 -20 -20 -20 -21 -21 -21 -21 -20 -20 -19 -19 -18 -17 -19 -19 -19 -19 -19 -19 -18 -18 -18 -17 -15 -13 -11 -11 -11 -11 -10 -9 -7 -6 -6 -5 -5 -6 -6 -7 -7
-19 -19 -20 -20 -20 -21 -21 -21 -21 -21 -21 -20 -20 -19 -16 -18 -19 -19 -19 -19 -19 -19 -19 -19 -19 -18 -17 -15 -14 -11 -9 -9 -8 -7 -7 -6 -6 -6 -6 -7 -7 -7 -7
-19 -19 -19 -20 -20 -21 -21 -21 -21 -21 -21 -21 -20 -20 -19 -20 -20 -20 -20 -19 -19 -19 -19 -19 -19 -18 -17 -16 -15 -14 -12 -10 -10 -8 -8 -8 -8 -8 -8 -8 -9 -9 -10
-20 -19 -19 -19 -20 -21 -21 -21 -21 -21 -21 -21 -21 -21 -21 -21 -21 -20 -20 -20 -19 -19 -19 -19 -18 -18 -17 -16 -15 -15 -14 -13 -12 -11 -10 -10 -10 -10 -10 -10 -11 -11 -11
-20 -20 -20 -20 -20 -20 -21 -21 -21 -21 -21 -21 -21 -21 -21 -20 -20 -20 -20 -20 -19 -19 -18 -18 -18 -17 -16 -16 -16 -15 -14 -14 -13 -12 -12 -11 -12 -12 -12 -12 -12 -12 -12
-20 -20 -20 -20 -20 -20 -21 -21 -21 -21 -21 -21 -21 -21 -21 -20 -20 -20 -20 -19 -19 -19 -18 -17 -17 -16 -16 -16 -15 -15 -15 -14 -14 -13 -13 -13 -13 -13 -13 -13 -13 -13 -13
-20 -21 -21 -21 -21 -21 -21 -21 -21 -21 -21 -21 -21 -21 -21 -21 -21 -20 -20 -20 -19 -19 -18 -17 -17 -16 -16 -16 -15 -14 -15 -15 -15 -14 -14 -14 -14 -14 -14 -14 -14 -15 -15
Height
846 845 845 843 843 841 838 836 836 833 833 833 829 822 821 819 814 809 808 805 802 801 797 793 790 787 786 783 782 783 783 784 777 774 774 774 773 773 774 776 778 781 785
845 844 844 844 842 840 838 836 835 834 830 830 827 820 818 817 812 804 802 801 799 795 792 788 784 781 778 777 775 773 773 775 774 766 768 767 764 764 766 767 768 770 773
843 842 842 840 838 836 835 834 832 830 827 824 821 817 812 809 805 801 797 794 792 790 787 785 779 776 771 769 766 765 765 764 763 762 759 760 757 755 757 758 759 760 764
840 840 839 838 836 834 832 829 827 825 822 819 814 810 808 805 800 796 793 789 786 784 779 777 771 768 766 762 759 757 758 757 756 752 751 753 751 746 747 748 751 751 753
837 837 836 835 833 831 829 826 824 821 817 813 808 804 801 797 794 792 789 784 779 776 772 769 762 760 757 755 755 751 750 750 748 746 742 744 743 741 734 735 739 746 746
834 834 833 832 830 827 825 823 819 815 811 806 802 798 792 789 789 788 785 780 775 769 762 757 752 752 748 746 745 744 744 742 738 738 734 733 729 729 734 731 730 737 741
831 830 829 828 826 824 821 817 813 808 803 799 795 791 785 782 781 778 775 769 762 756 751 746 742 741 739 737 734 733 732 732 729 729 724 720 720 721 723 725 721 721 720
827 826 825 824 822 819 815 811 807 803 798 794 789 785 780 776 773 769 765 759 752 746 743 740 736 732 730 731 729 725 720 718 716 716 712 712 709 712 714 712 713 713 717
822 822 821 819 817 814 810 806 802 797 792 787 783 779 774 769 767 762 758 751 744 738 735 732 729 725 723 723 720 713 709 704 702 703 702 700 699 700 703 705 706 708 707
817 817 815 813 810 807 804 800 796 792 786 782 776 773 768 762 759 755 751 744 736 731 727 723 720 717 714 713 710 706 698 689 695 692 690 686 686 687 690 690 693 693 692
812 811 809 808 805 802 797 793 789 784 780 775 770 765 761 757 751 747 743 737 731 724 719 714 711 710 705 703 700 693 685 684 681 680 676 673 672 673 674 677 676 679 681
806 805 804 802 800 796 792 787 782 778 774 769 764 759 754 748 744 739 735 730 725 717 710 705 700 699 694 690 686 682 677 674 669 663 659 655 657 658 660 663 664 664 667
800 799 798 796 794 791 787 781 776 773 769 763 760 753 745 739 733 729 725 720 715 708 701 694 689 684 679 675 673 670 668 664 659 653 644 641 641 645 651 653 655 656 657
793 792 791 789 787 784 781 777 773 768 763 759 753 745 737 730 725 721 714 706 700 694 688 679 673 670 667 663 660 658 655 652 649 643 635 629 631 632 635 641 645 647 649
788 787 786 784 781 778 776 772 768 763 759 752 745 738 730 722 717 711 704 697 690 683 675 668 662 657 652 649 646 643 641 639 635 631 623 618 619 619 621 626 631 637 639
784 783 781 779 776 774 770 764 760 757 752 747 740 733 725 718 710 702 695 688 681 673 664 657 651 647 643 637 633 629 628 625 620 617 605 603 604 607 609 615 621 624 628
780 778 776 774 772 769 765 762 756 742 741 739 735 728 721 713 705 697 688 680 673 668 662 654 647 640 632 626 622 619 616 612 610 606 599 597 598 600 602 605 609 614 619
776 774 772 770 768 765 761 758 754 748 741 728 723 722 716 709 701 692 684 676 668 663 660 653 644 636 626 618 613 610 607 603 601 598 592 590 590 590 593 596 600 604 610
771 770 768 766 764 761 757 753 750 744 740 733 722 714 709 702 696 690 684 678 671 664 657 649 641 631 620 610 604 600 598 595 593 592 588 585 583 584 585 589 594 598 603
767 765 763 762 759 756 753 750 746 740 736 730 723 717 706 700 692 685 681 676 669 662 655 647 637 628 617 607 596 589 588 587 586 585 583 580 579 579 580 583 587 592 596
761 760 759 757 755 752 749 746 742 738 733 727 722 716 710 704 697 690 682 675 668 661 653 646 636 627 617 607 597 588 583 580 578 576 575 574 574 575 577 580 583 587 592
756 755 754 752 750 748 745 743 738 734 730 725 720 714 709 702 696 690 683 676 668 662 654 646 638 629 620 611 602 593 586 581 577 574 572 571 572 573 575 578 582 587 592
752 751 750 748 747 744 741 739 735 731 727 723 719 713 707 702 696 690 683 676 669 661 654 647 639 631 622 614 606 599 593 587 583 579 577 576 576 576 578 581 584 589 594
748 747 746 745 743 740 738 735 732 728 725 720 717 712 708 702 697 691 684 677 670 663 656 649 641 634 626 618 610 604 598 593 588 585 583 581 581 582 584 586 590 593 597
744 744 743 741 739 736 734 731 728 725 721 718 714 710 706 701 696 690 684 678 672 665 658 651 645 637 630 623 616 610 604 598 594 591 589 588 588 589 590 592 595 599 603
740 740 739 737 735 733 731 727 724 721 718 715 712 708 703 698 694 688 683 678 672 666 660 654 648 642 635 629 622 617 611 605 601 598 596 595 595 596 598 600 602 606 609
Wind_Speed
8 10 12 14 18 19 20 21 22 22 23 26 27 28 30 32 30 28 27 28 30 31 28 25 24 24 27 28 28 30 27 26 19 30 32 33 35 36 37 44 47 47 45
5 7 9 11 16 21 23 22 22 25 25 27 30 31 32 34 34 34 36 35 32 31 33 34 31 26 26 27 29 30 28 29 29 26 27 33 33 36 39 41 45 49 48
4 8 11 14 19 24 27 26 26 28 30 32 33 35 38 39 39 39 38 39 38 35 34 33 34 33 31 28 28 29 28 26 28 30 29 31 33 33 34 39 43 45 47
5 10 14 17 20 25 30 31 32 32 34 35 35 35 34 35 34 34 33 34 35 35 33 34 34 35 36 33 29 29 27 26 25 26 28 27 33 34 32 29 29 39 43
9 12 14 18 23 28 30 32 34 36 37 36 33 32 30 30 28 27 28 30 32 34 34 33 32 33 36 34 31 28 26 25 23 23 24 23 24 20 23 24 29 26 34
7 10 14 20 26 27 29 32 36 39 38 37 35 33 36 33 29 30 30 31 32 33 34 34 33 35 34 33 33 33 33 30 28 25 25 24 30 26 28 27 25 20 8
9 13 17 19 21 24 30 36 37 38 38 35 34 32 36 36 34 35 34 35 35 35 36 36 36 35 33 31 31 34 36 37 40 37 33 34 31 28 26 28 27 31 30
10 13 15 17 22 28 30 32 34 33 32 32 32 32 34 33 33 35 35 36 36 37 36 36 35 36 34 33 35 36 37 37 39 39 41 45 37 34 32 35 33 36 33
12 11 14 20 23 25 29 31 31 32 32 33 30 31 32 33 32 32 32 32 32 34 34 35 35 38 39 39 41 40 39 41 40 39 44 46 42 41 37 27 28 23 19
9 14 20 21 23 26 28 30 30 30 30 30 31 30 32 34 32 30 29 30 31 31 31 32 32 35 37 38 39 40 39 44 37 38 39 41 44 43 42 41 35 31 28
13 16 18 20 23 24 26 28 30 32 28 29 29 30 31 31 32 28 28 30 29 31 31 31 30 34 39 41 41 42 38 40 41 42 40 37 36 36 35 41 41 39 32
13 15 18 19 20 22 25 29 30 30 26 25 26 27 28 28 29 29 30 31 33 35 34 35 35 35 37 38 38 42 46 46 41 37 36 36 35 33 33 34 38 42 45
13 16 18 19 19 21 23 28 29 25 23 22 23 26 29 30 30 31 32 34 35 37 37 39 42 44 44 43 39 40 42 40 35 36 35 34 35 37 32 30 32 35 42
14 16 19 19 22 22 22 25 24 24 21 22 27 28 29 28 28 27 31 35 37 37 39 43 46 43 40 41 38 36 34 35 36 35 38 33 34 32 33 31 27 26 28
14 16 18 20 21 23 22 23 24 25 24 29 30 30 30 29 31 36 38 37 37 36 41 36 31 28 30 31 31 30 29 29 32 35 37 32 31 26 29 31 31 25 21
12 16 18 20 21 21 21 24 26 23 24 28 30 30 31 33 35 37 38 38 39 40 37 31 28 27 28 29 28 27 28 31 29 34 29 26 20 18 26 27 29 27 23
12 16 18 19 20 19 19 20 22 36 29 23 22 26 28 31 33 34 35 36 35 32 25 26 27 29 29 28 28 25 27 30 28 32 25 22 21 22 25 25 24 25 22
12 14 15 17 19 21 20 20 22 20 23 37 33 27 26 28 31 33 30 28 29 26 23 24 27 30 30 28 26 25 26 28 26 26 23 21 24 28 23 23 24 25 23
12 13 13 15 18 19 20 20 20 19 21 24 29 30 31 30 29 24 24 21 22 24 25 27 28 30 32 30 28 28 28 28 25 24 24 20 22 19 18 22 23 26 25
10 10 11 15 17 17 17 18 19 18 19 20 22 24 33 28 29 29 26 24 23 24 25 27 30 30 29 28 27 28 25 25 25 24 24 22 19 17 18 18 21 21 22
9 9 10 12 13 14 15 17 18 18 19 20 21 23 24 24 22 24 25 25 25 26 27 28 29 30 29 29 29 25 16 21 23 24 22 19 20 18 19 19 20 21 20
9 9 10 10 11 12 13 14 15 16 18 19 21 22 21 23 22 23 25 26 27 27 27 27 28 29 30 29 28 26 21 16 12 8 11 12 13 13 15 15 15 15 17
8 8 9 8 8 9 10 11 13 14 17 17 19 22 23 23 24 24 26 27 28 29 29 29 29 30 31 30 27 24 22 18 13 6 1 5 8 12 14 14 16 16 17
7 7 8 8 8 7 9 10 11 13 14 17 18 20 21 23 24 25 26 27 29 29 29 29 30 32 33 32 29 25 21 17 12 7 2 6 10 13 15 16 15 15 17
7 8 8 8 8 8 10 10 11 13 15 16 18 19 21 22 23 25 26 27 28 28 29 29 29 29 31 31 27 26 22 18 14 10 6 6 11 13 16 17 18 17 18
8 9 9 9 8 9 10 11 13 14 15 17 18 19 20 22 23 24 25 27 27 27 26 26 26 26 28 29 27 24 22 20 15 11 8 10 13 15 17 20 21 20 20
Wind_Direction
59 47 36 26 16 9 4 360 354 351 346 341 338 339 336 334 335 334 329 326 325 321 318 315 308 302 291 284 284 283 265 259 261 271 268 264 255 248 245 244 240 240 237
39 18 6 360 359 360 356 351 346 339 337 332 330 329 326 323 323 324 322 319 315 312 312 311 308 309 302 295 287 278 274 270 262 270 265 260 254 249 248 245 242 240 237
357 345 343 344 346 347 345 340 336 333 330 326 324 323 322 319 317 316 315 313 311 308 303 299 299 302 298 297 294 285 276 267 262 262 266 261 259 248 239 240 240 240 238
322 326 330 333 334 333 331 331 331 330 326 324 320 316 313 310 309 309 311 310 308 303 300 296 293 291 290 291 286 280 277 269 264 258 262 260 252 245 238 225 226 232 234
305 315 321 323 322 320 320 322 322 321 319 317 314 310 307 303 302 304 304 303 299 296 293 289 289 286 287 284 278 273 268 262 258 257 260 255 240 230 217 216 222 226 231
285 296 305 308 309 314 317 318 316 315 314 313 311 309 307 304 305 303 299 296 291 289 287 288 287 286 283 279 277 274 267 262 258 251 251 249 250 234 239 221 210 205 229
277 297 307 310 313 314 313 312 314 314 314 311 309 308 304 304 307 305 302 299 294 290 287 285 285 282 282 281 280 277 272 266 258 253 254 248 249 244 231 220 214 214 228
302 310 311 312 313 314 315 315 314 313 309 307 305 303 302 303 307 305 302 297 292 288 286 285 284 282 280 281 284 282 274 268 262 256 250 255 251 249 244 237 225 227 233
312 317 310 314 315 316 314 315 312 309 307 305 304 303 301 301 305 303 301 297 291 288 287 285 283 283 282 280 279 277 276 273 267 262 257 256 254 249 242 239 228 217 229
311 310 314 318 318 315 315 313 311 306 299 300 298 298 298 298 303 303 300 295 290 289 289 288 287 285 285 282 276 272 272 268 269 266 261 258 255 251 245 232 222 221 225
305 311 316 317 315 314 314 316 313 307 300 296 297 300 297 293 295 300 298 294 291 290 286 288 289 290 288 285 282 283 274 271 266 263 259 256 251 248 244 237 230 217 222
310 313 315 316 315 316 316 317 315 307 296 298 301 298 294 291 291 294 297 295 293 291 289 287 285 288 289 287 283 276 275 277 278 268 253 244 244 244 241 237 234 228 226
312 315 317 318 321 321 316 315 308 300 295 300 299 293 291 291 287 291 294 293 290 285 280 281 286 288 288 288 286 284 283 275 276 270 255 248 237 236 239 238 240 237 233
312 319 323 322 322 321 317 310 296 292 295 298 290 287 288 292 296 297 289 282 278 277 273 272 273 277 277 277 277 275 271 263 266 271 268 247 242 228 227 229 233 232 228
312 322 321 323 321 317 312 308 297 293 297 295 295 298 302 304 304 304 305 302 295 289 291 291 286 263 258 260 262 257 263 268 267 272 259 245 243 226 217 216 217 219 215
311 322 320 321 319 312 308 308 316 303 307 304 304 306 307 306 310 312 312 309 306 304 297 290 289 293 281 273 263 261 262 262 264 276 252 243 236 241 210 210 209 212 211
316 316 318 319 317 309 307 304 304 324 323 314 315 316 317 316 320 319 318 318 315 314 314 306 298 292 285 276 268 263 260 263 267 275 247 242 236 233 214 201 199 205 207
312 313 313 316 314 314 309 303 301 304 310 315 327 329 328 329 328 328 330 329 329 328 315 307 304 303 301 281 268 259 261 266 266 271 276 254 244 226 204 207 199 201 203
308 310 317 317 315 310 313 310 300 306 307 306 316 330 337 336 336 339 340 334 323 320 319 315 312 307 306 285 268 258 252 258 262 269 270 253 254 221 211 210 206 202 196
300 310 317 316 316 319 320 314 305 313 309 310 318 326 329 345 343 339 340 335 330 325 323 321 320 322 321 324 304 262 250 246 255 259 259 261 249 224 219 200 194 191 195
294 308 314 316 321 321 323 318 318 317 308 314 318 330 343 347 333 333 334 337 335 332 330 329 327 329 332 333 337 345 262 247 247 247 247 244 227 215 213 200 192 192 188
291 299 306 315 319 321 326 322 328 329 327 324 326 334 345 347 340 337 337 338 339 339 340 338 335 338 342 344 348 352 356 358 350 294 244 222 207 193 181 172 167 163 155
278 287 302 310 313 322 328 334 342 339 338 341 345 344 349 346 345 342 342 343 346 351 355 357 355 351 356 3 8 9 6 6 7 352 198 154 146 145 142 136 139 138 144
269 280 290 301 310 326 329 337 342 342 341 343 344 345 348 351 351 351 355 356 357 3 7 9 8 9 7 7 11 12 13 11 15 22 66 138 131 133 132 124 127 134 137
273 271 279 289 301 316 320 330 337 339 341 342 340 342 344 347 348 351 355 358 360 4 7 11 14 14 16 16 11 17 18 22 26 31 59 106 119 122 120 117 116 116 121
269 270 273 281 289 298 305 319 325 329 331 330 331 335 339 341 342 346 349 352 353 356 1 5 9 13 20 18 22 20 22 24 34 43 71 98 108 110 112 110 109 107 107